Simultaneous Nadir Overpasses (SNOs) Predictions

Prediction of SNOs between NOAA-19 and METOP-C Satellite Orbit:

Table of predicted SNOs for the next 14.0 days since TLE Epoch: 7/30/2022
Index Date (NOAA-19) Time (NOAA-19) Lat,Lon (NOAA-19) SZA (NOAA-19 ) Date (METOP-C) Time (METOP-C) Lat,Lon (METOP-C) SZA (METOP-C ) Distance(km) Time Diff (sec)
1 08/04/2022 17:00:56 -80.87, 138.06 114.84 08/04/2022 17:01:59 -80.87, 138.01 114.83 1.08 63
2 08/04/2022 17:51:52 80.87, -54.43 65.19 08/04/2022 17:52:39 80.88, -54.42 65.22 1.16 47
3 08/04/2022 18:42:55 -80.87, 112.86 114.80 08/04/2022 18:43:20 -80.88, 112.86 114.78 0.96 25
4 08/04/2022 19:33:52 80.87, -80.00 65.21 08/04/2022 19:34:01 80.87, -79.92 65.22 1.50 9
5 08/04/2022 20:24:55 -80.87, 87.30 114.78 08/04/2022 20:24:42 -80.87, 87.37 114.78 1.14 13
6 08/04/2022 21:15:52 80.87,-105.57 65.22 08/04/2022 21:15:23 80.86,-105.41 65.22 2.92 29
7 08/04/2022 22:06:55 -80.87, 61.74 114.77 08/04/2022 22:06:04 -80.86, 61.87 114.78 2.53 51



Historial Predications of SNOs between NOAA-19 and METOP-C
